TimeEST,TemperatureF,Dew PointF,Humidity,Sea Level PressureIn,VisibilityMPH,Wind Direction,Wind SpeedMPH,Gust SpeedMPH,PrecipitationIn,Events,Conditions,WindDirDegrees,DateUTC
12:36 AM,19.4,14.0,80,29.96,2.5,North,11.5,-,0.00,Snow,Light Snow,350,2013-02-09 05:36:00
12:54 AM,19.0,12.9,77,29.99,2.5,North,12.7,-,0.00,Snow,Light Snow,350,2013-02-09 05:54:00
1:45 AM,17.6,12.2,79,29.99,1.8,North,17.3,-,0.00,Snow,Light Snow,350,2013-02-09 06:45:00
1:54 AM,16.0,10.9,81,30.02,1.5,NNW,15.0,-,0.00,Snow,Light Snow,340,2013-02-09 06:54:00
2:07 AM,15.8,10.4,79,30.00,1.2,NNW,16.1,-,0.00,Snow,Light Snow,330,2013-02-09 07:07:00
2:34 AM,12.2,8.6,85,30.02,1.2,NNW,15.0,23.0,0.01,Snow,Light Snow,340,2013-02-09 07:34:00
2:41 AM,12.2,8.6,85,30.02,1.5,NNW,13.8,23.0,0.01,Snow,Light Snow,340,2013-02-09 07:41:00
2:54 AM,12.0,8.1,84,30.04,1.5,NNW,15.0,20.7,0.01,Snow,Light Snow,340,2013-02-09 07:54:00
3:12 AM,12.2,6.8,79,30.03,2.0,NNW,15.0,24.2,0.00,Snow,Light Snow,340,2013-02-09 08:12:00
3:44 AM,10.4,6.8,85,30.03,2.5,North,18.4,-,0.00,Snow,Light Snow,350,2013-02-09 08:44:00
3:54 AM,10.9,6.1,81,30.06,2.5,North,16.1,-,0.00,Snow,Light Snow,350,2013-02-09 08:54:00
4:08 AM,10.4,5.0,79,30.04,3.0,NNW,18.4,-,0.00,Snow,Light Snow,340,2013-02-09 09:08:00
4:43 AM,10.4,3.2,73,30.06,3.0,NNW,17.3,25.3,0.00,Snow,Light Snow,340,2013-02-09 09:43:00
4:54 AM,10.0,3.9,76,30.09,5.0,North,18.4,-,0.00,Snow,Light Snow,350,2013-02-09 09:54:00
5:10 AM,10.4,3.2,73,30.07,4.0,NNW,15.0,25.3,0.00,Snow,Light Snow,340,2013-02-09 10:10:00
5:31 AM,8.6,3.2,79,30.08,2.5,NNW,18.4,25.3,0.00,Snow,Light Snow,340,2013-02-09 10:31:00
5:40 AM,8.6,3.2,79,30.08,4.0,NNW,17.3,25.3,0.00,Snow,Light Snow,340,2013-02-09 10:40:00
5:54 AM,9.0,3.0,77,30.11,7.0,North,18.4,26.5,0.00,Snow,Light Snow,350,2013-02-09 10:54:00
6:25 AM,8.6,-0.4,67,30.10,9.0,North,15.0,25.3,0.00,Snow,Light Snow,350,2013-02-09 11:25:00
6:54 AM,9.0,-0.9,64,30.14,9.0,North,15.0,-,0.00,Snow,Light Snow,350,2013-02-09 11:54:00
7:54 AM,10.0,1.0,67,30.17,6.0,North,18.4,28.8,0.00,Snow,Light Snow,350,2013-02-09 12:54:00
8:34 AM,10.4,1.4,67,30.16,8.0,North,20.7,27.6,0.00,Snow,Light Snow,350,2013-02-09 13:34:00
8:54 AM,10.0,1.0,67,30.19,6.0,North,20.7,25.3,0.00,Snow,Light Snow,360,2013-02-09 13:54:00
9:54 AM,10.9,1.0,64,30.21,4.0,North,21.9,31.1,0.00,Snow,Light Snow,350,2013-02-09 14:54:00
10:49 AM,12.2,-0.4,57,30.20,6.0,North,17.3,33.4,0.00,Snow,Light Snow,360,2013-02-09 15:49:00
10:54 AM,12.0,-0.0,59,30.22,10.0,North,18.4,33.4,0.00,,Scattered Clouds,350,2013-02-09 15:54:00
11:54 AM,12.0,-0.0,59,30.23,8.0,North,19.6,26.5,N/A,,Scattered Clouds,350,2013-02-09 16:54:00
12:54 PM,12.0,-0.0,59,30.24,6.0,North,20.7,29.9,N/A,Snow,Blowing Snow,360,2013-02-09 17:54:00
1:54 PM,14.0,-0.9,52,30.25,10.0,North,17.3,26.5,N/A,,Clear,350,2013-02-09 18:54:00
2:54 PM,15.1,-2.9,45,30.26,10.0,North,18.4,26.5,N/A,,Clear,350,2013-02-09 19:54:00
3:54 PM,15.1,-2.9,45,30.27,10.0,North,18.4,26.5,N/A,,Clear,360,2013-02-09 20:54:00
4:54 PM,14.0,-2.9,47,30.29,10.0,North,10.4,21.9,N/A,,Clear,360,2013-02-09 21:54:00
5:54 PM,12.0,-4.0,49,30.32,10.0,NNE,4.6,-,N/A,,Clear,20,2013-02-09 22:54:00
6:54 PM,10.0,-4.0,53,30.34,10.0,ENE,5.8,-,N/A,,Clear,60,2013-02-09 23:54:00
7:54 PM,5.0,-6.0,61,30.35,10.0,East,3.5,-,N/A,,Clear,90,2013-02-10 00:54:00
8:54 PM,5.0,-4.0,66,30.37,10.0,East,5.8,-,N/A,,Clear,80,2013-02-10 01:54:00
9:54 PM,3.9,-5.1,66,30.38,10.0,Calm,Calm,-,N/A,,Clear,0,2013-02-10 02:54:00
10:54 PM,1.9,-4.0,76,30.39,10.0,Calm,Calm,-,N/A,,Clear,0,2013-02-10 03:54:00
11:54 PM,1.9,-4.0,76,30.40,10.0,Calm,Calm,-,N/A,,Clear,0,2013-02-10 04:54:00